Theta_e
321 320 319 318 318 318 319 319 319 319 318 319 319 320 320 320 320 320 320 320 320 321 320 320 321 323 316 304 306 315 343 340 327 314 309 308 305 303 298 301 300 298 302 302 303 305 304
321 321 320 319 318 318 318 319 319 318 318 318 318 318 319 319 319 319 319 319 318 318 319 321 323 324 313 300 313 315 318 313 314 312 309 308 306 306 300 300 299 301 302 301 301 302 304
321 321 320 319 319 318 318 318 318 318 318 318 318 318 318 318 318 318 319 318 317 318 320 322 325 320 308 303 313 312 311 310 310 312 309 309 307 306 302 302 303 301 297 299 299 302 301
321 320 320 319 318 318 318 318 318 318 318 318 318 317 318 318 318 319 319 318 318 319 322 324 326 313 303 315 314 312 311 313 313 314 312 312 309 304 301 302 303 300 297 292 298 302 302
320 320 319 319 318 317 317 317 317 317 318 318 317 317 317 317 318 318 318 317 319 322 324 324 312 307 305 319 312 315 311 312 313 314 313 316 308 303 305 297 294 296 292 293 298 301 302
320 320 319 319 318 317 317 317 317 317 317 317 317 316 316 316 317 317 316 316 318 318 317 321 315 303 308 309 314 315 314 315 312 311 310 308 303 300 298 295 290 292 293 296 297 300 299
320 319 319 319 318 317 317 317 317 317 317 316 316 315 315 316 317 315 310 311 305 303 305 304 306 307 311 315 315 312 315 313 313 308 301 304 299 295 298 299 300 299 297 296 300 303 300
319 318 318 318 318 317 316 316 316 317 316 316 315 315 316 316 316 315 309 308 313 310 304 310 308 310 313 314 309 312 315 310 309 301 303 299 296 302 304 304 300 298 295 295 299 302 299
318 318 318 317 316 316 316 316 316 316 316 315 314 314 315 316 315 311 309 314 319 313 302 309 311 308 309 310 309 310 312 309 306 302 300 297 301 307 305 302 300 296 294 294 295 298 298
317 317 317 316 316 315 316 316 316 316 315 315 314 314 314 315 312 311 313 318 317 313 298 304 307 309 310 309 308 314 315 310 307 302 302 300 304 304 301 301 300 294 300 299 297 292 287
317 317 316 316 316 315 315 315 315 315 314 314 314 314 314 314 307 307 316 312 313 313 291 309 305 312 311 307 309 312 317 313 305 304 302 299 301 301 300 301 303 298 301 298 297 291 288
317 317 316 316 316 315 315 314 314 314 314 313 314 313 312 313 309 311 314 312 311 297 291 302 307 306 304 306 309 311 311 313 312 306 305 303 306 304 302 305 303 303 297 294 292 289 284
316 316 316 315 315 315 314 314 314 314 313 313 313 312 310 314 309 314 314 309 296 291 305 302 302 305 303 303 306 307 306 304 300 296 296 302 301 304 307 300 302 297 290 282 283 284 284
316 315 315 315 315 314 314 313 313 313 312 312 311 309 309 311 311 312 312 302 289 301 303 309 306 304 301 304 304 306 304 300 305 302 296 295 294 302 307 300 295 293 290 283 280 280 283
316 315 315 315 314 314 314 313 313 312 311 311 309 313 308 310 314 314 308 295 295 303 310 307 305 299 299 304 304 304 302 303 305 303 295 293 296 304 304 302 300 294 290 293 287 288 284
315 315 315 315 314 314 314 313 313 312 311 310 306 312 316 316 315 313 302 298 304 312 313 309 301 305 300 301 301 300 302 308 306 307 303 300 292 303 303 303 300 294 297 287 287 282 280
315 315 315 314 314 314 314 313 313 312 310 309 311 310 320 321 317 307 297 300 307 313 315 309 306 304 304 303 303 301 304 307 309 306 305 300 296 297 302 297 294 294 292 289 289 287 281
315 315 315 315 314 314 313 313 313 311 309 307 303 303 318 316 303 301 299 306 309 310 313 311 309 307 305 304 301 302 303 306 311 308 301 301 296 292 297 302 301 295 291 290 284 285 287
313 314 315 314 314 313 313 313 312 311 309 304 298 301 313 314 298 298 304 309 312 310 309 309 307 308 307 302 296 304 305 311 310 309 304 300 292 285 289 294 299 296 298 293 291 288 286
312 313 314 314 314 313 313 312 312 311 309 304 302 300 306 309 306 302 299 303 307 311 311 310 308 307 303 300 301 299 303 308 311 307 312 305 293 291 286 291 296 294 297 298 292 283 287
311 312 313 313 313 312 313 313 312 311 310 307 306 302 301 299 301 301 302 306 306 305 307 307 304 305 302 296 298 299 302 304 307 309 302 296 289 293 296 299 299 296 295 296 292 291 288
309 311 311 312 312 312 313 313 313 311 309 311 303 301 303 302 302 300 299 301 304 306 305 303 301 305 304 297 300 298 302 300 300 301 297 298 291 294 294 300 300 296 298 297 297 295 293
306 308 309 309 311 312 312 313 313 312 309 304 308 308 303 299 299 298 298 301 302 305 309 309 306 304 301 304 305 303 303 303 304 299 297 297 293 291 287 297 296 289 294 297 296 296 294
305 305 307 308 309 310 311 312 313 313 310 303 305 305 300 297 299 301 304 304 302 303 302 307 306 301 305 306 304 301 299 301 302 301 301 296 294 292 288 292 282 293 302 301 297 296 296
304 304 305 305 307 309 309 310 311 313 313 304 304 304 302 296 301 302 302 301 303 303 302 305 308 308 306 303 297 294 295 298 301 301 299 297 293 288 285 285 292 297 300 297 292 292 298
302 303 304 304 305 307 308 309 310 312 313 305 304 307 305 297 296 305 301 302 298 299 301 306 308 307 305 299 295 289 289 296 297 299 301 299 296 291 288 284 283 293 302 302 299 286 301
301 302 303 304 304 305 306 307 309 312 313 308 304 306 304 298 301 303 299 299 304 300 300 303 305 303 302 295 292 290 291 299 293 294 293 293 292 289 287 285 291 299 302 303 287 289 301
300 301 302 302 303 304 305 306 308 310 312 310 305 308 305 305 303 307 307 300 301 300 297 301 301 301 298 293 293 293 292 295 294 297 296 293 289 288 289 285 286 303 301 293 296 298 301
302 301 301 301 302 303 304 306 307 310 311 312 302 310 312 304 304 309 310 311 308 306 301 300 301 302 303 296 296 296 294 294 292 289 298 293 297 293 293 293 299 302 300 301 302 300 301
Wind_Speed
16 17 17 16 14 11 9 7 6 6 6 5 6 6 7 8 9 10 11 11 11 10 7 9 11 11 0 4 9 9 8 7 5 4 4 0 4 3 4 6 3 5 6 5 8 12 8
17 17 18 17 15 13 11 10 8 7 6 6 6 7 8 9 9 10 11 11 11 10 5 7 11 9 1 4 6 7 9 4 6 3 3 6 6 9 3 4 3 2 5 5 4 9 6
18 18 18 17 16 15 13 13 10 8 7 7 7 8 8 9 10 11 11 12 12 11 7 8 9 3 2 13 4 3 4 5 4 6 3 3 3 5 3 7 2 1 3 4 2 7 7
19 19 18 19 18 17 16 15 13 11 9 8 8 8 9 9 10 11 12 13 14 13 9 4 3 1 7 7 6 6 3 5 5 8 2 5 4 3 2 4 10 6 5 4 5 4 3
19 19 19 19 19 18 17 16 14 13 11 9 9 9 9 9 9 11 13 15 16 12 8 5 1 2 9 11 3 7 2 1 4 4 5 3 5 1 8 6 7 8 5 4 3 5 6
19 20 20 20 20 19 18 17 16 15 14 11 10 9 9 8 9 11 15 10 7 9 1 4 2 3 6 4 3 2 3 5 2 6 7 5 6 5 5 6 2 4 5 7 5 3 3
19 20 20 20 20 20 19 18 17 16 15 14 11 9 8 8 8 9 9 6 6 5 2 7 5 6 6 4 2 3 2 4 2 3 2 4 7 1 5 3 4 8 6 3 3 6 4
17 18 20 20 21 20 20 19 18 18 17 15 12 9 8 8 6 5 0 0 6 4 7 6 12 6 8 7 2 7 2 1 3 5 3 8 1 4 7 9 10 9 8 7 4 10 6
16 17 18 19 20 20 20 20 19 18 18 16 13 10 8 8 4 0 3 7 6 5 1 9 7 6 6 4 1 3 3 2 1 3 3 6 4 7 10 8 8 4 6 3 3 5 5
16 17 19 19 19 20 21 21 21 20 19 16 14 11 9 11 1 2 5 7 7 5 6 8 3 5 2 4 2 1 1 3 6 3 3 4 2 10 8 6 4 3 3 2 5 5 2
16 18 18 19 20 21 22 22 23 23 21 18 14 11 8 5 2 2 7 7 5 8 2 4 5 5 8 6 6 3 1 4 2 4 7 5 3 5 6 1 1 5 3 3 3 3 2
16 18 19 19 21 22 22 23 24 25 24 22 16 11 8 3 1 8 9 7 6 8 5 3 5 4 5 3 2 4 1 2 1 3 5 3 0 4 3 3 7 2 5 7 6 3 3
15 17 18 19 20 21 23 24 25 26 27 25 19 10 3 1 5 4 7 6 7 4 6 3 6 5 6 5 5 6 4 1 2 4 4 7 5 2 3 6 8 12 8 6 7 7 5
14 15 17 18 20 21 22 24 25 27 28 27 23 7 6 4 6 6 5 7 2 5 6 6 7 6 8 8 5 6 5 4 6 4 2 4 6 1 1 4 1 2 6 6 1 1 6
14 15 16 18 19 21 22 24 25 28 29 26 18 3 2 6 2 4 7 4 7 5 4 7 4 5 4 3 6 4 4 3 4 3 6 3 2 2 4 2 6 4 3 5 5 2 3
13 14 15 17 18 20 21 23 25 28 31 20 3 4 4 4 7 6 6 5 5 4 5 3 5 6 6 3 4 4 4 4 3 4 4 1 1 2 2 2 3 5 3 4 4 0 3
12 13 14 15 17 19 21 22 24 27 31 17 4 4 6 7 6 6 4 7 6 5 1 4 2 4 3 3 5 4 4 5 5 3 8 3 4 6 2 2 4 2 2 5 4 5 6
12 12 13 15 16 17 19 21 22 24 28 12 3 3 4 4 4 1 3 5 3 6 1 1 3 5 2 5 4 4 3 2 2 2 3 2 4 2 7 6 4 4 5 6 7 4 1
11 12 13 14 15 17 18 20 21 19 14 3 3 4 5 6 2 3 6 6 6 6 2 3 4 4 2 2 4 5 2 1 4 4 6 3 2 4 10 8 7 3 3 4 4 4 6
11 12 13 13 14 16 18 19 21 21 13 3 3 5 6 5 2 0 4 7 4 1 3 4 4 4 4 2 1 4 4 3 4 3 4 7 3 7 7 6 2 6 6 7 6 5 4
11 12 13 13 14 17 18 19 20 24 23 3 2 3 2 4 5 5 2 4 3 4 3 2 2 4 5 2 1 1 4 3 4 2 3 5 3 3 5 6 5 6 9 9 6 7 7
11 11 11 13 15 17 16 17 19 24 22 4 2 3 5 4 4 5 3 3 3 4 3 4 5 7 5 6 8 4 8 4 4 1 3 2 2 1 4 7 6 7 10 8 6 3 5
11 11 11 13 14 15 15 16 18 20 12 3 4 4 4 5 6 3 2 6 9 10 4 4 10 5 6 1 7 7 6 7 10 10 6 6 4 3 5 5 6 8 6 3 3 1 5
11 11 12 12 13 14 15 16 16 15 10 1 3 2 3 4 2 3 7 6 10 13 5 3 4 5 5 7 6 4 3 6 8 6 7 6 5 4 4 4 2 9 2 3 7 3 4
9 11 12 11 12 13 15 15 16 14 12 1 2 3 1 3 2 4 11 5 9 9 4 3 0 3 5 6 5 5 6 7 4 7 7 6 6 1 2 2 7 7 2 4 5 2 1
7 8 10 12 12 13 13 14 15 15 13 2 2 1 1 3 4 3 4 3 3 4 8 5 6 3 7 4 4 5 5 5 4 3 3 5 5 6 3 3 6 8 2 4 4 3 4
6 7 8 10 12 12 13 13 14 14 13 3 4 1 2 0 4 4 3 3 4 4 2 4 7 6 5 3 3 4 5 3 4 6 5 3 1 6 3 4 8 8 5 3 5 10 6
4 5 7 8 10 12 12 12 13 13 14 5 4 2 2 2 6 3 3 1 5 3 1 5 4 5 3 3 4 4 4 6 4 6 8 9 8 5 3 3 8 8 3 8 9 4 6
6 4 4 6 8 10 12 12 11 12 11 9 2 4 3 3 6 3 9 11 10 13 3 3 3 3 4 2 1 2 2 1 4 5 2 2 9 8 10 10 7 8 7 6 8 6 5
Wind_Direction
33 37 39 39 35 30 20 15 10 2 347 328 318 311 306 308 309 309 307 305 305 310 327 306 309 318 315 5 251 252 197 210 166 121 218 203 303 151 245 281 320 106 171 103 115 113 116
30 31 35 35 32 29 22 18 13 9 353 336 327 316 314 311 311 309 308 303 302 306 319 292 301 307 5 327 244 260 203 246 230 176 256 158 233 213 224 269 67 162 93 136 162 141 127
28 26 28 29 28 28 22 21 14 10 355 342 332 326 319 315 314 313 307 302 301 303 304 302 307 325 5 241 225 21 276 245 218 218 256 253 236 41 333 332 306 169 40 29 207 167 140
24 23 24 25 21 22 22 18 14 7 356 346 337 327 321 320 319 314 307 300 296 293 298 282 341 32 251 255 323 311 204 283 264 268 237 276 355 345 121 286 5 10 59 8 289 176 103
21 20 20 21 19 16 15 12 9 5 357 347 337 328 326 323 319 315 305 292 283 287 261 217 119 110 272 310 199 264 196 333 308 311 282 297 41 12 11 53 7 8 288 208 281 215 134
19 18 18 17 17 14 12 8 5 2 356 348 337 330 328 326 323 320 302 277 296 321 76 172 265 10 283 242 236 316 307 314 319 327 357 41 45 26 29 69 194 281 11 341 4 279 166
17 17 14 14 14 12 9 7 3 360 355 349 341 333 327 321 325 341 350 3 18 354 70 202 207 205 284 254 97 284 257 315 318 25 275 13 59 283 237 220 65 91 83 83 262 341 77
14 14 13 10 10 9 6 4 2 358 353 348 345 337 322 312 332 329 71 267 214 172 305 233 244 257 266 247 1 287 112 1 39 278 306 25 119 262 55 62 73 67 51 355 306 350 50
13 11 11 7 6 4 3 2 1 359 353 347 343 338 326 312 316 293 196 228 278 40 59 294 214 200 223 122 255 233 98 75 288 4 15 130 220 66 84 45 51 49 87 352 265 329 347
10 9 8 5 3 2 2 359 358 356 353 348 341 338 333 308 46 305 258 286 257 155 51 278 194 260 180 141 71 311 26 89 6 330 123 125 288 95 71 74 111 25 253 343 324 49 273
8 8 5 4 2 1 360 358 355 353 350 347 340 335 331 8 272 341 261 338 264 55 20 243 212 199 158 133 158 325 74 51 66 306 70 281 121 86 77 68 340 229 327 309 258 263 37
5 5 4 3 1 359 358 357 354 351 347 343 338 331 321 104 39 245 309 325 49 48 259 262 163 154 114 171 147 189 167 45 287 29 23 241 294 53 149 107 79 358 8 354 31 87 41
3 2 2 1 360 359 357 355 354 349 345 341 333 323 280 10 238 312 345 41 46 136 296 221 181 163 171 227 168 167 164 82 149 62 355 12 356 358 52 32 7 40 44 346 3 13 225
0 360 360 359 357 358 356 354 353 349 343 339 328 315 214 222 251 20 41 52 143 254 262 289 181 163 184 195 205 177 153 140 48 96 99 118 336 7 10 131 165 332 129 145 258 297 279
1 359 359 359 357 357 357 355 353 349 343 341 321 350 316 258 215 84 69 76 211 239 325 349 11 139 260 222 143 127 134 59 34 69 125 88 309 35 97 128 112 323 42 184 113 349 40
2 1 360 358 357 357 357 356 355 351 342 344 8 354 267 232 122 68 77 232 248 249 294 17 49 41 21 335 93 121 102 313 96 49 96 178 25 325 291 63 5 134 182 41 12 311 306
359 360 358 358 358 357 357 356 356 354 342 331 40 18 260 137 71 54 158 228 289 264 80 70 64 51 25 36 21 62 45 6 32 52 62 63 107 285 35 119 226 17 20 62 111 137 167
357 356 357 355 357 358 357 356 356 358 343 38 11 4 299 41 59 80 179 208 263 302 168 74 109 82 85 21 44 72 117 104 1 94 77 15 138 267 240 271 206 173 174 129 116 262 179
359 358 357 355 356 357 356 354 353 360 23 331 11 268 322 94 169 277 283 282 282 191 61 66 42 86 121 84 61 114 109 278 41 86 158 172 10 14 345 356 357 17 261 164 115 73 207
2 359 0 358 360 360 355 353 350 346 353 131 52 350 324 32 111 65 315 283 279 315 120 102 136 92 78 69 136 158 146 188 87 92 133 89 119 155 190 219 225 294 299 283 136 113 223
10 9 8 4 4 2 355 352 352 344 347 134 64 273 201 325 328 336 297 304 359 360 7 75 51 158 164 182 296 327 86 90 45 131 60 103 182 213 247 254 260 265 272 288 215 209 159
7 9 14 11 5 4 356 356 356 350 343 49 74 44 350 295 304 345 337 286 333 299 212 250 170 215 145 179 177 172 130 138 186 198 146 32 257 251 286 288 294 294 287 278 280 115 131
9 7 7 10 10 4 2 1 2 1 4 41 320 347 105 286 333 8 32 320 303 337 262 267 186 125 87 220 144 158 167 160 165 159 182 150 149 87 269 305 337 324 270 226 124 65 130
15 12 10 9 8 7 10 6 4 7 29 160 266 43 48 279 331 344 338 329 341 314 279 19 61 99 210 133 102 78 89 152 159 178 150 141 123 130 246 6 334 244 249 138 130 128 117
14 14 13 9 6 7 12 10 8 1 359 32 292 57 41 290 329 306 348 322 321 331 297 112 318 161 141 65 63 36 347 359 265 198 181 149 125 115 135 197 283 295 218 170 156 289 69
2 8 11 10 7 8 9 8 7 4 353 356 280 241 121 109 246 338 316 335 333 331 346 2 349 354 74 89 91 147 212 225 273 296 74 77 95 125 137 173 234 239 267 114 94 297 165
343 355 3 7 8 6 8 5 4 359 356 347 287 354 78 124 269 10 85 282 339 340 270 323 330 357 55 93 120 161 235 229 219 184 180 107 39 177 151 227 283 242 155 114 86 239 193
306 335 352 359 3 3 2 2 1 358 354 3 280 297 74 273 283 266 337 12 354 9 20 292 19 345 44 92 134 218 184 236 194 198 182 165 154 200 130 196 275 167 128 159 210 198 181
269 281 324 349 354 358 357 358 360 356 353 354 304 323 312 198 247 235 237 231 197 221 190 308 202 258 211 97 230 106 255 323 187 257 133 148 181 183 169 210 227 194 186 195 161 162 166